Regional Weather Roundup
Issued by NWS Northern Indiana

Home | Current Version | Previous Version | Graphics & Text | Print | Product List | Glossary On
Versions: 1 2 3 4 5 6 7 8 9 10 11 12 13 14 15 16 17 18 19 20 21 22 23 24 25 26 27 28 29 30 31 32 33 34 35 36 37 38 39 40 41 42 43 44 45 46 47 48 49 50
000
ASUS43 KIWX 100300
RWRIWX

KIWX WEATHER ROUNDUP
NATIONAL WEATHER SERVICE NORTHERN INDIANA
1000 PM EST TUE FEB 09 2016

NOTE: "FAIR" INDICATES FEW OR NO CLOUDS BELOW 12,000 FEET WITH NO
SIGNIFICANT WEATHER AND/OR OBSTRUCTIONS TO VISIBILITY.

* THESE STATIONS ARE NOT UNDER NWS QUALITY CONTROL. THEY ALSO MAY NOT
  REPORT WEATHER SUCH AS PRECIPITATION OR FOG.

INZ001>027-100400-
NORTHERN INDIANA

CITY           SKY/WX    TMP DP  RH WIND       PRES   REMARKS
GARY*          LGT SNOW  18   7  62 W14       29.95S WCI   4
SOUTH BEND     LGT SNOW  18  15  88 W13       29.86S FOG     WCI   5
GOSHEN         LGT SNOW  19  14  81 W15       29.84S WCI   5
ANGOLA*        CLOUDY    21  18  86 W12       29.78S WCI   9
FORT WAYNE     FLURRIES  21  13  71 W20G28    29.85S WCI   6
PERU/GRISSOM   FLURRIES  17  11  79 W15       29.88S WCI   2

$$
INZ028>050-100400-
CENTRAL INDIANA

CITY           SKY/WX    TMP DP  RH WIND       PRES   REMARKS
LAFAYETTE      CLOUDY    16   9  74 W12       29.95F WCI   3
KOKOMO*        CLOUDY    16   9  73 W14       29.90S WCI   1
MUNCIE*        CLOUDY    18  11  74 W16       29.88S WCI   3
INDIANAPOLIS   LGT SNOW  15   9  76 NW10      29.94S WCI   2

$$
MIZ043>046-050>051-056>058-064>065-071>073-077>080-100400-
SOUTHWEST LOWER MICHIGAN

CITY           SKY/WX    TMP DP  RH WIND       PRES   REMARKS
BATTLE CREEK   CLOUDY    22  15  75 NW10      29.77S WCI  11
BENTON HARBOR  LGT SNOW  23  18  81 NW15G24   29.85S WCI  10
COLDWATER*     LGT SNOW  23  19  85 W12G17    29.77S WCI  12
HILLSDALE*     FLURRIES  22  17  81 W15G22    29.73S WCI   9
HOLLAND        FLURRIES  23  18  81 NW13G21   29.81S WCI  11
GRAND RAPIDS   FLURRIES  23  17  78 NW16G24   29.77S WCI  10
KALAMAZOO      LGT SNOW  23  17  78 W13       29.79S WCI  11
STURGIS*       FLURRIES  21  18  88 W9        29.79S WCI  10
THREE RIVERS*  LGT SNOW  22  19  88 W10       29.81S WCI  12

$$
OHZ001>008-015>018-024>025-100400-
NORTHWEST OHIO

CITY           SKY/WX    TMP DP  RH WIND       PRES   REMARKS
DEFIANCE       CLOUDY    24  17  74 W10G17    29.81R WCI  14
FINDLAY        MOCLDY    24  16  71 W18G29    29.78R WCI  10
TOLEDO EXPRESS CLOUDY    25  18  74 W16G23    29.76R WCI  12
TOLEDO METCALF CLOUDY    27  19  72 W17       29.76R WCI  14
LIMA           CLOUDY    21  17  84 W17       29.81R WCI   7

$$
AND FOR LAKE MICHIGAN COASTAL AND OPEN LAKE BUOY OBSERVATIONS

STATION/POSITION TEMP    WIND        PRES    VSBY  WAVE
                 AIR SEA DIR/SP/G                  HT/PER
                 (F)     (DEG/KT/KT) (MB)    (MI)  (FT/S)
CALUMET HARBOR    16     290/ 11/ 16 1013.3R
MICHIGAN CITY     20     270/ 21/ 24   N/A
BURNS HARBOR      20     300/ 16/ 22 1013.2F
SAINT JOSEPH      24     280/ 18/ 23 1011.2F

$$
&&



USA.gov is the U.S. government's official web portal to all federal, state and local government web resources and services.